Time,TemperatureF,DewpointF,PressureIn,WindDirection,WindDirectionDegrees,WindSpeedMPH,WindSpeedGustMPH,Humidity,HourlyPrecipIn,Conditions,Clouds,dailyrainin,SoftwareType,DateUTC
2013-02-24 00:01:00,69.0,56.0,29.87,ENE,60,0.0,0.0,64,0.00,,,0.00,,2013-02-24 00:01:00,
2013-02-24 00:11:00,68.0,56.0,29.87,ENE,60,0.0,1.0,66,0.00,,,0.00,,2013-02-24 00:11:00,
2013-02-24 00:22:00,68.0,56.0,29.87,ENE,60,0.0,1.0,66,0.00,,,0.00,,2013-02-24 00:22:00,
2013-02-24 00:32:00,67.0,55.0,29.86,ENE,60,0.0,2.0,66,0.00,,,0.00,,2013-02-24 00:32:00,
2013-02-24 00:42:00,67.0,55.0,29.86,ENE,60,0.0,2.0,66,0.00,,,0.00,,2013-02-24 00:42:00,
2013-02-24 00:52:00,66.0,56.0,29.88,ENE,60,0.0,1.0,69,0.00,,,0.00,,2013-02-24 00:52:00,
2013-02-24 01:01:00,66.0,56.0,29.88,ENE,60,0.0,0.0,71,0.00,,,0.00,,2013-02-24 01:01:00,
2013-02-24 01:11:00,66.0,56.0,29.88,ENE,60,0.0,0.0,71,0.00,,,0.00,,2013-02-24 01:11:00,
2013-02-24 01:22:00,65.0,55.0,29.88,ENE,60,0.0,0.0,71,0.00,,,0.00,,2013-02-24 01:22:00,
2013-02-24 01:31:00,64.0,55.0,29.88,ENE,60,0.0,2.0,73,0.00,,,0.00,,2013-02-24 01:31:00,
2013-02-24 01:41:00,64.0,55.0,29.88,ENE,60,0.0,2.0,73,0.00,,,0.00,,2013-02-24 01:41:00,
2013-02-24 01:51:00,64.0,55.0,29.88,ENE,60,0.0,1.0,73,0.00,,,0.00,,2013-02-24 01:51:00,
2013-02-24 02:01:00,63.0,55.0,29.88,ENE,60,0.0,0.0,74,0.00,,,0.00,,2013-02-24 02:01:00,
2013-02-24 02:11:00,63.0,55.0,29.88,ENE,60,0.0,0.0,74,0.00,,,0.00,,2013-02-24 02:11:00,
2013-02-24 02:21:00,63.0,55.0,29.89,ENE,60,0.0,0.0,74,0.00,,,0.00,,2013-02-24 02:21:00,
2013-02-24 02:32:00,63.0,55.0,29.89,ENE,60,0.0,0.0,74,0.00,,,0.00,,2013-02-24 02:32:00,
2013-02-24 02:41:00,63.0,55.0,29.89,ENE,60,0.0,0.0,74,0.00,,,0.00,,2013-02-24 02:41:00,
2013-02-24 02:52:00,62.0,55.0,29.90,ENE,60,0.0,0.0,77,0.00,,,0.00,,2013-02-24 02:52:00,
2013-02-24 03:02:00,62.0,55.0,29.91,ENE,60,0.0,1.0,77,0.00,,,0.00,,2013-02-24 03:02:00,
2013-02-24 03:11:00,62.0,55.0,29.91,ENE,60,0.0,1.0,77,0.00,,,0.00,,2013-02-24 03:11:00,
2013-02-24 03:21:00,62.0,55.0,29.91,ENE,60,0.0,1.0,77,0.00,,,0.00,,2013-02-24 03:21:00,
2013-02-24 03:32:00,62.0,55.0,29.91,ENE,59,0.0,2.0,77,0.00,,,0.00,,2013-02-24 03:32:00,
2013-02-24 03:42:00,62.0,55.0,29.91,ENE,59,0.0,2.0,77,0.00,,,0.00,,2013-02-24 03:42:00,
2013-02-24 03:52:00,62.0,55.0,29.91,NE,55,0.0,2.0,78,0.00,,,0.00,,2013-02-24 03:52:00,
2013-02-24 04:01:00,61.0,55.0,29.92,NE,44,0.0,3.0,80,0.00,,,0.00,,2013-02-24 04:01:00,
2013-02-24 04:11:00,61.0,55.0,29.92,NE,44,0.0,3.0,80,0.00,,,0.00,,2013-02-24 04:11:00,
2013-02-24 04:21:00,60.0,54.0,29.92,NE,50,0.0,2.0,81,0.00,,,0.00,,2013-02-24 04:21:00,
2013-02-24 04:32:00,60.0,54.0,29.92,ENE,64,1.0,4.0,82,0.00,,,0.00,,2013-02-24 04:32:00,
2013-02-24 04:41:00,60.0,54.0,29.92,ENE,64,1.0,4.0,82,0.00,,,0.00,,2013-02-24 04:41:00,
2013-02-24 04:52:00,60.0,54.0,29.93,NE,54,1.0,3.0,82,0.00,,,0.00,,2013-02-24 04:52:00,
2013-02-24 05:01:00,60.0,54.0,29.93,ENE,59,1.0,4.0,82,0.00,,,0.00,,2013-02-24 05:01:00,
2013-02-24 05:11:00,60.0,54.0,29.93,ENE,59,1.0,4.0,82,0.00,,,0.00,,2013-02-24 05:11:00,
2013-02-24 05:22:00,59.0,53.0,29.93,ENE,63,1.0,3.0,81,0.00,,,0.00,,2013-02-24 05:22:00,
2013-02-24 05:32:00,59.0,53.0,29.92,ENE,65,0.0,2.0,81,0.00,,,0.00,,2013-02-24 05:32:00,
2013-02-24 05:42:00,59.0,53.0,29.92,ENE,65,0.0,2.0,81,0.00,,,0.00,,2013-02-24 05:42:00,
2013-02-24 05:52:00,58.0,53.0,29.93,ENE,65,0.0,1.0,82,0.00,,,0.00,,2013-02-24 05:52:00,
2013-02-24 06:01:00,57.0,52.0,29.93,ENE,64,1.0,2.0,83,0.00,,,0.00,,2013-02-24 06:01:00,
2013-02-24 06:11:00,57.0,52.0,29.93,ENE,64,1.0,2.0,83,0.00,,,0.00,,2013-02-24 06:11:00,
2013-02-24 06:21:00,57.0,52.0,29.93,ENE,63,1.0,2.0,83,0.00,,,0.00,,2013-02-24 06:21:00,
2013-02-24 06:31:00,56.0,51.0,29.93,ENE,63,0.0,1.0,83,0.00,,,0.00,,2013-02-24 06:31:00,
2013-02-24 06:42:00,56.0,51.0,29.93,ENE,63,0.0,1.0,83,0.00,,,0.00,,2013-02-24 06:42:00,
2013-02-24 06:52:00,56.0,51.0,29.93,ENE,63,0.0,1.0,83,0.00,,,0.00,,2013-02-24 06:52:00,
2013-02-24 07:01:00,56.0,51.0,29.93,ENE,63,0.0,1.0,84,0.00,,,0.00,,2013-02-24 07:01:00,
2013-02-24 07:12:00,56.0,51.0,29.93,ENE,63,0.0,1.0,84,0.00,,,0.00,,2013-02-24 07:12:00,
2013-02-24 07:21:00,55.0,50.0,29.93,ENE,63,0.0,1.0,84,0.00,,,0.00,,2013-02-24 07:21:00,
2013-02-24 07:31:00,55.0,51.0,29.93,NE,44,1.0,4.0,85,0.00,,,0.00,,2013-02-24 07:31:00,
2013-02-24 07:41:00,55.0,51.0,29.93,NE,44,1.0,4.0,85,0.00,,,0.00,,2013-02-24 07:41:00,
2013-02-24 07:52:00,54.0,50.0,29.93,NE,43,0.0,2.0,85,0.00,,,0.00,,2013-02-24 07:52:00,
2013-02-24 08:01:00,54.0,50.0,29.93,NE,43,0.0,3.0,85,0.00,,,0.00,,2013-02-24 08:01:00,
2013-02-24 08:11:00,54.0,50.0,29.92,NNE,31,0.0,2.0,86,0.00,,,0.00,,2013-02-24 08:11:00,
2013-02-24 08:22:00,54.0,50.0,29.92,NNE,31,0.0,2.0,86,0.00,,,0.00,,2013-02-24 08:22:00,
2013-02-24 08:31:00,53.0,49.0,29.92,NNE,24,1.0,4.0,86,0.00,,,0.00,,2013-02-24 08:31:00,
2013-02-24 08:42:00,53.0,49.0,29.92,NNE,24,1.0,4.0,86,0.00,,,0.00,,2013-02-24 08:42:00,
2013-02-24 08:54:00,53.0,49.0,29.91,NNE,28,1.0,3.0,86,0.00,,,0.00,,2013-02-24 08:54:00,
2013-02-24 09:01:00,52.0,48.0,29.91,NE,36,1.0,3.0,87,0.00,,,0.00,,2013-02-24 09:01:00,
2013-02-24 09:11:00,52.0,48.0,29.91,NE,36,1.0,3.0,87,0.00,,,0.00,,2013-02-24 09:11:00,
2013-02-24 09:21:00,52.0,48.0,29.90,NE,38,1.0,2.0,87,0.00,,,0.00,,2013-02-24 09:21:00,
2013-02-24 09:31:00,52.0,48.0,29.90,NE,38,1.0,3.0,87,0.00,,,0.00,,2013-02-24 09:31:00,
2013-02-24 09:41:00,52.0,48.0,29.90,NE,38,1.0,3.0,87,0.00,,,0.00,,2013-02-24 09:41:00,
2013-02-24 09:52:00,52.0,48.0,29.89,ENE,68,0.0,3.0,87,0.00,,,0.00,,2013-02-24 09:52:00,
2013-02-24 10:01:00,52.0,49.0,29.89,ENE,57,0.0,2.0,88,0.00,,,0.00,,2013-02-24 10:01:00,
2013-02-24 10:11:00,52.0,49.0,29.88,NE,55,2.0,4.0,88,0.00,,,0.00,,2013-02-24 10:11:00,
2013-02-24 10:21:00,52.0,49.0,29.88,NE,55,2.0,4.0,88,0.00,,,0.00,,2013-02-24 10:21:00,
2013-02-24 10:31:00,52.0,49.0,29.88,ENE,58,3.0,7.0,89,0.00,,,0.00,,2013-02-24 10:31:00,
2013-02-24 10:41:00,52.0,49.0,29.88,ENE,58,3.0,7.0,89,0.00,,,0.00,,2013-02-24 10:41:00,
2013-02-24 10:52:00,54.0,50.0,29.87,ENE,61,4.0,8.0,86,0.00,,,0.00,,2013-02-24 10:52:00,
2013-02-24 11:01:00,54.0,50.0,29.88,ENE,58,3.0,8.0,86,0.00,,,0.00,,2013-02-24 11:01:00,
2013-02-24 11:11:00,54.0,50.0,29.88,ENE,58,3.0,8.0,86,0.00,,,0.00,,2013-02-24 11:11:00,
2013-02-24 11:21:00,54.0,50.0,29.88,ENE,78,2.0,5.0,85,0.00,,,0.00,,2013-02-24 11:21:00,
2013-02-24 11:32:00,54.0,50.0,29.88,ENE,61,3.0,7.0,86,0.00,,,0.00,,2013-02-24 11:32:00,
2013-02-24 11:41:00,54.0,50.0,29.88,ENE,61,3.0,7.0,86,0.00,,,0.00,,2013-02-24 11:41:00,
2013-02-24 11:53:00,54.0,50.0,29.88,ENE,60,2.0,4.0,85,0.00,,,0.00,,2013-02-24 11:53:00,
2013-02-24 12:01:00,54.0,50.0,29.89,ENE,67,1.0,4.0,85,0.00,,,0.00,,2013-02-24 12:01:00,
2013-02-24 12:11:00,54.0,50.0,29.89,ENE,67,1.0,4.0,85,0.00,,,0.00,,2013-02-24 12:11:00,
2013-02-24 12:21:00,53.0,49.0,29.89,ENE,64,0.0,2.0,86,0.00,,,0.00,,2013-02-24 12:21:00,
2013-02-24 12:32:00,53.0,49.0,29.90,ENE,66,1.0,4.0,86,0.00,,,0.00,,2013-02-24 12:32:00,
2013-02-24 12:46:00,53.0,49.0,29.90,ENE,66,1.0,4.0,86,0.00,,,0.00,,2013-02-24 12:46:00,
2013-02-24 12:56:00,52.0,48.0,29.91,ENE,65,0.0,1.0,86,0.00,,,0.00,,2013-02-24 12:56:00,
2013-02-24 13:09:00,51.0,47.0,29.91,ENE,65,0.0,1.0,86,0.00,,,0.00,,2013-02-24 13:09:00,
2013-02-24 13:26:00,51.0,48.0,29.91,NNE,28,2.0,3.0,88,0.00,,,0.00,,2013-02-24 13:26:00,
2013-02-24 13:33:00,51.0,48.0,29.92,North,5,2.0,3.0,88,0.00,,,0.00,,2013-02-24 13:33:00,
2013-02-24 13:43:00,51.0,48.0,29.92,North,5,2.0,3.0,88,0.00,,,0.00,,2013-02-24 13:43:00,
2013-02-24 13:54:00,52.0,49.0,29.93,NNE,26,2.0,5.0,88,0.00,,,0.00,,2013-02-24 13:54:00,
2013-02-24 14:03:00,53.0,50.0,29.93,NNE,26,2.0,5.0,88,0.00,,,0.00,,2013-02-24 14:03:00,
2013-02-24 14:13:00,55.0,52.0,29.93,NNE,21,3.0,7.0,88,0.00,,,0.00,,2013-02-24 14:13:00,
2013-02-24 14:23:00,55.0,52.0,29.93,NNE,21,3.0,7.0,88,0.00,,,0.00,,2013-02-24 14:23:00,
2013-02-24 14:33:00,56.0,52.0,29.93,North,360,3.0,7.0,87,0.00,,,0.00,,2013-02-24 14:33:00,
2013-02-24 14:44:00,56.0,52.0,29.93,North,360,3.0,7.0,87,0.00,,,0.00,,2013-02-24 14:44:00,
2013-02-24 14:54:00,57.0,52.0,29.94,NE,36,5.0,10.0,84,0.00,,,0.00,,2013-02-24 14:54:00,
2013-02-24 15:02:00,58.0,53.0,29.94,NE,55,4.0,8.0,84,0.00,,,0.00,,2013-02-24 15:02:00,
2013-02-24 15:13:00,60.0,54.0,29.94,NE,51,5.0,8.0,82,0.00,,,0.00,,2013-02-24 15:13:00,
2013-02-24 15:22:00,60.0,54.0,29.94,NE,51,5.0,8.0,82,0.00,,,0.00,,2013-02-24 15:22:00,
2013-02-24 15:32:00,61.0,55.0,29.93,NE,50,5.0,8.0,81,0.00,,,0.00,,2013-02-24 15:32:00,
2013-02-24 15:53:00,62.0,55.0,29.93,NE,44,6.0,11.0,77,0.00,,,0.00,,2013-02-24 15:53:00,
2013-02-24 16:01:00,63.0,55.0,29.93,ENE,59,5.0,10.0,75,0.00,,,0.00,,2013-02-24 16:01:00,
2013-02-24 16:11:00,64.0,54.0,29.93,ENE,61,6.0,9.0,69,0.00,,,0.00,,2013-02-24 16:11:00,
2013-02-24 16:21:00,64.0,54.0,29.93,ENE,61,6.0,9.0,69,0.00,,,0.00,,2013-02-24 16:21:00,
2013-02-24 16:32:00,64.0,54.0,29.94,East,97,4.0,10.0,69,0.00,,,0.00,,2013-02-24 16:32:00,
2013-02-24 16:41:00,64.0,54.0,29.94,East,97,4.0,10.0,69,0.00,,,0.00,,2013-02-24 16:41:00,
2013-02-24 16:52:00,65.0,54.0,29.93,East,100,5.0,10.0,68,0.00,,,0.00,,2013-02-24 16:52:00,
2013-02-24 17:01:00,66.0,56.0,29.93,East,92,4.0,9.0,69,0.00,,,0.00,,2013-02-24 17:01:00,
2013-02-24 17:11:00,66.0,56.0,29.93,East,92,4.0,9.0,69,0.00,,,0.00,,2013-02-24 17:11:00,
2013-02-24 17:21:00,67.0,56.0,29.92,ENE,58,5.0,11.0,67,0.00,,,0.00,,2013-02-24 17:21:00,
2013-02-24 17:32:00,67.0,55.0,29.92,NE,46,5.0,8.0,65,0.00,,,0.00,,2013-02-24 17:32:00,
2013-02-24 17:41:00,67.0,55.0,29.92,NE,46,5.0,8.0,65,0.00,,,0.00,,2013-02-24 17:41:00,
2013-02-24 17:52:00,69.0,56.0,29.91,ENE,59,4.0,9.0,64,0.00,,,0.00,,2013-02-24 17:52:00,
2013-02-24 18:01:00,69.0,56.0,29.90,East,97,5.0,10.0,63,0.00,,,0.00,,2013-02-24 18:01:00,
2013-02-24 18:22:00,70.0,55.0,29.89,ENE,74,5.0,9.0,60,0.00,,,0.00,,2013-02-24 18:22:00,
2013-02-24 18:31:00,70.0,56.0,29.88,ESE,114,4.0,10.0,61,0.00,,,0.00,,2013-02-24 18:31:00,
2013-02-24 18:42:00,70.0,56.0,29.88,ESE,114,4.0,10.0,61,0.00,,,0.00,,2013-02-24 18:42:00,
2013-02-24 18:52:00,72.0,57.0,29.87,ESE,105,6.0,10.0,60,0.00,,,0.00,,2013-02-24 18:52:00,
2013-02-24 19:01:00,71.0,56.0,29.87,ENE,71,6.0,11.0,60,0.00,,,0.00,,2013-02-24 19:01:00,
2013-02-24 19:11:00,71.0,56.0,29.87,ENE,71,6.0,11.0,60,0.00,,,0.00,,2013-02-24 19:11:00,
2013-02-24 19:22:00,72.0,57.0,29.85,East,80,7.0,12.0,60,0.00,,,0.00,,2013-02-24 19:22:00,
2013-02-24 19:32:00,72.0,57.0,29.84,ENE,67,6.0,9.0,60,0.00,,,0.00,,2013-02-24 19:32:00,
2013-02-24 19:52:00,72.0,58.0,29.83,East,91,6.0,11.0,61,0.00,,,0.00,,2013-02-24 19:52:00,
2013-02-24 20:02:00,72.0,57.0,29.83,East,79,5.0,9.0,60,0.00,,,0.00,,2013-02-24 20:02:00,
2013-02-24 20:21:00,72.0,58.0,29.82,East,89,5.0,10.0,61,0.00,,,0.00,,2013-02-24 20:21:00,
2013-02-24 20:31:00,72.0,58.0,29.81,East,86,5.0,10.0,62,0.00,,,0.00,,2013-02-24 20:31:00,
2013-02-24 20:52:00,72.0,59.0,29.81,East,82,4.0,8.0,63,0.00,,,0.00,,2013-02-24 20:52:00,
2013-02-24 21:01:00,72.0,59.0,29.80,East,98,3.0,9.0,63,0.00,,,0.00,,2013-02-24 21:01:00,
2013-02-24 21:21:00,72.0,58.0,29.80,East,96,6.0,9.0,62,0.00,,,0.00,,2013-02-24 21:21:00,
2013-02-24 21:32:00,72.0,59.0,29.79,ESE,103,6.0,11.0,64,0.00,,,0.00,,2013-02-24 21:32:00,
2013-02-24 21:52:00,71.0,58.0,29.78,ENE,71,4.0,7.0,64,0.00,,,0.00,,2013-02-24 21:52:00,
2013-02-24 22:01:00,72.0,59.0,29.77,ESE,105,7.0,11.0,63,0.00,,,0.00,,2013-02-24 22:01:00,
2013-02-24 22:11:00,72.0,59.0,29.77,ESE,105,7.0,11.0,63,0.00,,,0.00,,2013-02-24 22:11:00,
2013-02-24 22:21:00,71.0,61.0,29.76,East,94,7.0,10.0,70,0.00,,,0.00,,2013-02-24 22:21:00,
2013-02-24 22:31:00,71.0,62.0,29.76,ESE,104,7.0,9.0,72,0.00,,,0.00,,2013-02-24 22:31:00,
2013-02-24 22:52:00,71.0,63.0,29.76,ESE,104,9.0,13.0,76,0.00,,,0.00,,2013-02-24 22:52:00,
2013-02-24 23:02:00,71.0,63.0,29.76,East,96,7.0,11.0,76,0.00,,,0.00,,2013-02-24 23:02:00,
2013-02-24 23:21:00,71.0,63.0,29.75,ESE,104,3.0,7.0,77,0.00,,,0.00,,2013-02-24 23:21:00,
2013-02-24 23:31:00,71.0,64.0,29.75,East,94,2.0,7.0,78,0.00,,,0.00,,2013-02-24 23:31:00,
2013-02-24 23:52:00,71.0,64.0,29.74,ESE,113,4.0,7.0,79,0.00,,,0.00,,2013-02-24 23:52:00,